Starlink 32711

operational
NORAD ID: 62435 Int'l Des: 2024-251 Owner: SPXS Country: US Constellation: starlink
LEOCIRCULAR

About Starlink 32711

Description loading...

Live Position

Loading 3D Globe...

Upcoming Passes

Altitude History

Altitude vs Time

uPlot chart will show altitude changes over time

Two-Line Element Set

1 62435U 24251D 25305.45389354 .00026039 00000-0 88779-3 0 9992
2 62435 53.1595 211.0388 0001656 73.1323 286.9860 15.30214790 48317
Epoch: Nov 1, 2025 • Age: 23 hours

Current Status

Altitude 487.8 km
Velocity 7.62 km/s
Sub-Earth Point -37.44°S, 23.08°W
Launch Date Dec 29, 2024
Age 0.8 years
Type internet

Technical Details

Classification Payload
Mass 730.00 kg
Dry Mass 700.00 kg
Total Mass 730.00 kg
Length 0.30 m
Diameter 4.10 m
Span 29.00 m
Shape Box + pan
Manufacturer SPXS
Bus Type Starlink V2M
Phase Status In Orbit
Owner/State SPXS/US

Large Constellations

Loading constellations...